Home > Weather > Vaduz > Past weeks

Flag for Liechtenstein Past Weather in Vaduz, Liechtenstein — Yesterday and Last 2 Weeks

Now
77 °F

Fog.


Feels Like: 78 °F
Forecast: 62 / 84 °F
Wind: 3 mph from Northwest

Location: Vaduz

Current Time: Jul 25, 2016 at 5:58:47 PM

Latest Report: Jul 25, 2016 at 5:00 PM


Visibility: 7 mi

Pressure: 30.02 "Hg

Humidity: 67%

Dew Point: 65 °F

Location of VaduzLocation

Past Weather in Vaduz — Graph

°F

Vaduz Temperature Yesterday

Maximum temperature yesterday: 79 °F (at 4:00 PM)
Minimum temperature yesterday: 60 °F (at 5:00 AM)
Average temperature yesterday: 68 °F

High & Low Weather Summary for the Past Weeks

 TemperatureHumidityPressure
High88 °F (Jul 20, 5:00 PM)96% (Jul 16, 4:00 AM)30.39 "Hg (Jul 16, 4:00 AM)
Low47 °F (Jul 16, 5:00 AM)39% (Jul 16, 5:00 PM)29.82 "Hg (Jul 11, 4:00 PM)
Average67 °F74%30.08 "Hg
* Reported Jul 10 4:00 PM — Jul 25 4:00 PM, Vaduz, Weather by CustomWeather, © 2016

Note: Actual official high and low records may vary slightly from our data, if they occured in-between our weather recording intervals... More about our weather records

Advertising

Vaduz Weather History for the Previous 24 Hours

Scroll right to see more
 ConditionsComfort  
Time TempWeatherWind HumidityBarometerVisibility
4:00 PM
Mon, Jul 25
79 °FWarm.6 mph62%30.02 "HgN/A
3:00 PM76 °FMild.5 mph66%30.03 "HgN/A
2:00 PM76 °FMild.7 mph68%30.04 "HgN/A
1:00 PM76 °FMild.6 mph74%30.06 "HgN/A
12:00 PM72 °FMild.2 mph77%30.08 "HgN/A
11:00 AM68 °FFog.No wind89%30.10 "Hg7 mi
10:00 AM67 °FMild.No wind90%30.11 "HgN/A
9:00 AM65 °FMild.2 mph93%30.12 "HgN/A
8:00 AM64 °FOvercast.No wind95%30.13 "Hg6 mi
7:00 AM64 °FMild.No wind95%30.12 "HgN/A
6:00 AM63 °FMild.No wind95%30.12 "HgN/A
5:00 AM64 °FFog.1 mph93%30.11 "Hg4 mi
4:00 AM65 °FMild.3 mph92%30.11 "HgN/A
3:00 AM65 °FMild.5 mph92%30.11 "HgN/A
2:00 AM62 °FFog.No wind96%30.12 "Hg4 mi
1:00 AM64 °FMild.1 mph96%30.12 "HgN/A
12:00 AM64 °FMild.1 mph96%30.12 "HgN/A
11:00 PM
Sun, Jul 24
65 °FRain. Overcast.No wind95%30.11 "Hg4 mi
10:00 PM66 °FMild.No wind95%30.10 "HgN/A
9:00 PM67 °FMild.2 mph93%30.08 "HgN/A
8:00 PM68 °FOvercast.2 mph93%30.07 "Hg4 mi
7:00 PM71 °FMild.1 mph80%30.04 "HgN/A
6:00 PM72 °FMild.3 mph75%30.02 "HgN/A
5:00 PM76 °FScattered clouds.6 mph60%30.00 "Hg4 mi
Weather by CustomWeather, © 2016

See weather overviewHow to use our weather pages